World > North America > United States > Ohio

Russell Township, Ohio Regional Weather

Lat: 41.45N, Lon: 81.41W
Wx Zone: OHZ011Web Search

Our weather pages are very print friendly and they make great conversation starters.

Feedback


°F Click to change Russell Township hourly weather to Imperial units.Click to change Russell Township hourly weather to Metric units. °C
Russell Township Weather Map
UTC Time: 5/18/2021, 02:20
Your Time:

Russell Township, OH Regional Weather

Expires:202105180300;;287096
ASUS41 KCLE 180212
RWRCLE
OHIO REGIONAL WEATHER ROUNDUP
NATIONAL WEATHER SERVICE WILMINGTON, OH
1000 PM EDT MON MAY 17 2021

NOTE: "FAIR" INDICATES FEW OR NO CLOUDS BELOW 12,000 FEET WITH NO
SIGNIFICANT WEATHER AND/OR OBSTRUCTIONS TO VISIBILITY.


OHZ009>014-019>023-028>033-038-089-180300-
   NORTHEAST OHIO
  
CITY           SKY/WX    TMP DP  RH WIND       PRES   REMARKS
CLE-HOPKINS    MOCLDY    64  44  48 E6        30.26R                  
CLE-LAKEFRONT  MOCLDY    68  44  42 SE3       30.26R                  
CUY CO. ARPT   MOCLDY    63  45  51 SE5       30.27R                  
LORAIN-ELYRIA  FAIR      62  45  53 E5        30.27R                  
ASHTABULA      FAIR      55  46  71 CALM      30.29R                  
AKRON-CANTON   MOCLDY    65  43  44 E3        30.28R                  
WOOSTER        FAIR      59  47  64 CALM      30.28R                  
MANSFIELD      FAIR      60  47  61 SW5       30.27R                  
YOUNGSTOWN     CLOUDY    59  46  62 NE7       30.29R                  
$$
 

SKY/WX - Weather  TMP - Temperature  DP - Dew Point  RH - Relative Humidity
WIND - Wind Direction/Speed PRES - Barometric Pressure VSB - Visibility
WCI - Wind Chill Index E13G22 Wind - East Wind 13 mph/Gusts of 22 mph